This is the latest recevied weather packets stored in our database for station/object W1REE. If no packets are shown the sender has not sent any weather packets the latest 10 day(s).
| Time | Temp. | Humidity | Pressure | Rain* | Wind** | Luminosity | Snow |
|---|---|---|---|---|---|---|---|
| 1778007169 | 3.89° C | 95% | 1014.7 hPa | 1.78 mm | - | 220 W/m² | - |
| 1778006865 | 3.89° C | 95% | 1014.7 hPa | 1.78 mm | - | 159 W/m² | - |
| 1778006562 | 3.89° C | 95% | 1014.7 hPa | 0 mm | - | 96 W/m² | - |
| 1778006258 | 3.89° C | 95% | 1014.8 hPa | 0 mm | - | 140 W/m² | - |
| 1778005956 | 3.89° C | 95% | 1014.7 hPa | 0 mm | - | 128 W/m² | - |
| 1778005653 | 3.89° C | 95% | 1014.8 hPa | 0 mm | - | 99 W/m² | - |
| 1778005349 | 3.89° C | 95% | 1015 hPa | 1.78 mm | - | 94 W/m² | - |
| 1778005046 | 3.89° C | 95% | 1015.1 hPa | 1.78 mm | - | 101 W/m² | - |
| 1778004744 | 3.89° C | 95% | 1015 hPa | 0 mm | - | 94 W/m² | - |
| 1778004440 | 3.89° C | 95% | 1015.1 hPa | 0 mm | - | 94 W/m² | - |
| 1778004137 | 3.89° C | 95% | 1015.2 hPa | 0 mm | - | 93 W/m² | - |
| 1778003833 | 3.89° C | 95% | 1015.2 hPa | 1.27 mm | - | 103 W/m² | - |
| 1778003529 | 3.89° C | 95% | 1015.4 hPa | 1.27 mm | - | 117 W/m² | - |
| 1778003226 | 3.89° C | 94% | 1015.4 hPa | 0 mm | - | 123 W/m² | - |
| 1778002922 | 3.89° C | 95% | 1015.6 hPa | 0 mm | - | 117 W/m² | - |
| 1778002619 | 3.89° C | 94% | 1015.4 hPa | 0 mm | - | 110 W/m² | - |
| 1778002316 | 3.33° C | 94% | 1015.4 hPa | 1.78 mm | - | 118 W/m² | - |
| 1778002013 | 3.33° C | 94% | 1015.4 hPa | 1.78 mm | - | 104 W/m² | - |
| 1778001710 | 3.33° C | 94% | 1015.6 hPa | 1.27 mm | - | 92 W/m² | - |
| 1778001409 | 3.33° C | 94% | 1015.6 hPa | 1.27 mm | - | 52 W/m² | - |
| 1778001107 | 3.33° C | 93% | 1015.4 hPa | 1.78 mm | - | 59 W/m² | - |
| 1778000804 | 3.33° C | 93% | 1015.6 hPa | 1.78 mm | - | 55 W/m² | - |
| 1778000501 | 3.89° C | 93% | 1015.6 hPa | 1.27 mm | - | 73 W/m² | - |
| 1778000201 | 3.89° C | 93% | 1015.7 hPa | 1.27 mm | - | 76 W/m² | - |
| 1777999897 | 3.89° C | 93% | 1015.6 hPa | 1.78 mm | - | 78 W/m² | - |
* Rain latest hour (hover to see other rain measurements)
** Current wind speed in m/s (hover to see current wind gust speed)